Location: Neuvy Saint Sepulchre
(46.5953°N, 1.8122°E)
Time: 18:50:34
(UTC+01:00)

ISS - Visible Passes

Search period start: 28 January 2023 00:00
Search period end: 07 February 2023 00:00
Orbit: 412 x 419 km, 51.6° (Epoch: 28 January)

Date Brightness Start Highest point End Pass type
(mag) Time Alt. Az. Time Alt. Az. Time Alt. Az.
28 Jan -2.7 18:31:02 10° WNW 18:34:09 33° N 18:37:03 11° ENE visible
28 Jan -2.2 20:07:53 10° WNW 20:09:56 33° NW 20:09:56 33° NW visible
29 Jan -3.4 19:19:15 10° WNW 19:22:32 50° NNE 19:23:26 38° ENE visible
29 Jan -0.3 20:56:05 10° WNW 20:56:20 12° WNW 20:56:20 12° WNW visible
30 Jan -3.1 18:30:34 10° WNW 18:33:47 40° NNE 18:36:59 10° E visible
30 Jan -2.7 20:07:18 10° WNW 20:09:53 45° W 20:09:53 45° W visible
31 Jan -3.8 19:18:33 10° WNW 19:21:56 90° S 19:23:31 29° ESE visible
31 Jan -0.3 20:56:04 10° W 20:56:26 12° W 20:56:26 12° W visible
01 Feb -3.7 18:29:47 10° WNW 18:33:09 64° NNE 18:36:30 10° ESE visible
01 Feb -1.9 20:06:49 10° W 20:09:40 26° SW 20:10:10 24° SSW visible
02 Feb -2.5 19:17:47 10° WNW 19:20:59 40° SW 19:24:04 11° SE visible
03 Feb -3.3 18:28:53 10° WNW 18:32:13 64° SSW 18:35:32 10° SE visible
03 Feb -0.6 20:07:24 10° WSW 20:08:21 11° SW 20:09:19 10° SSW visible
04 Feb -0.9 19:17:21 10° W 19:19:42 18° SW 19:22:03 10° S visible
05 Feb -1.5 18:28:01 10° W 18:30:57 28° SW 18:33:52 10° SSE visible
